THORAD AGENA D DEB, 4753

Orbit data source: Space-Track

THORAD AGENA D DEB, 4753 is space debris in SSO originally from a launch on Wed, 08 Apr 1970 UTC launched from the Air Force Western Test Range (AFWTR). Debris objects in space refer to the collection of defunct objects orbiting the Earth. Examples of debris include non-operational satellites, rocket bodies, and fragments generated from explosions, collisions, or faulty payload assembly.

Loading next visibility...
Identifier
4753, 1970-025DB
Orbit
SSO
Country
Flag of USUS
Related business
Manufacturer
Unknown
Mission
Spacecraft
Bus & Motor
Unknown
Mass
Unknown
Launch date (UTC)
1970-04-08 (56 years ago)
Launch vehicle
Unknown
Launch site
Air Force Western Test Range (AFWTR)
Object type
Payload
Rocket body
Debris
Shape & HBR
Unknown shape, 0.2 m
Radar Cross Section
Small (<0.1 m²)

Expand to show TLE details & history
Last TLE update: 17 hours ago

TLE from 17 hours ago
0 THORAD AGENA D DEB
1 04753U 70025DB  25307.72831769  .00001258  00000-0  11696-2 0  9994
2 04753  99.9817  59.7318 0008937 175.5476 184.5758 13.84336546771645
Epoch: 2025-11-03T17:28Z
TLE epoch observation values (Epoch: 2025-11-03T17:28:46.648Z)
Latitude
0.00004°
Longitude
114.3119°
Altitude
957.897 km
Speed
7.37 km/s
True Right ascension
03h 58m 55s
True Declination
0° 00' 00"
Sunlit
Object was in full shadow at epoch
Visualization orbit readout
Latitude
Unknown
Longitude
Unknown
Altitude
Unknown
Speed
Unknown
Apparent Right ascension
Unknown
Apparent Declination
Unknown
Sunlit
N/A
Visualization observer readout
Local Sidereal Time
06:17:57
Azimuth
Unknown
Elevation
Unknown
Doppler factor
Unknown
Orbital elements
Apogee altitude
952.362 km
Perigee altitude
939.271 km
Semi-major axis
7,323.953 km
Eccentricity
0.00089
Inclination
99.9817°
RAAN
59.7318°
Arg. of periapsis
175.5476°
True anomaly
184.56764°
Mean anomaly
184.5758°
Eccentric anomaly
184.57172°
Mean motion
3.46278 °/min
Orbital period
103.96 mins
BSTAR
0.0011696
Loading maneuver chart data...
Computing Atmospheric mass density...

Documentation

Showing up to 5 results
|